Regional Weather Roundup
Issued by NWS

Home | Current Version | Previous Version | Text Only | Print | Product List | Glossary Off
Versions: 1 2 3 4 5 6 7 8 9 10 11 12 13 14 15 16 17 18 19 20 21 22 23 24 25 26 27 28 29 30 31 32 33 34 35 36 37 38 39 40 41 42 43 44 45 46 47 48 49 50

000
ASUS43 KDMX 191601
RWRIA

WEATHER ROUNDUP FOR IOWA
NATIONAL WEATHER SERVICE DES MOINES IA
1100 AM CDT THU APR 19 2018

NOTE: "FAIR" INDICATES FEW OR NO CLOUDS BELOW 12,000 FEET WITH NO
SIGNIFICANT WEATHER AND/OR OBSTRUCTIONS TO VISIBILITY.

* - THESE STATIONS ARE NOT NWS STATIONS...THUS NOT UNDER NWS
QUALITY CONTROL.  THEY ALSO DO NOT REPORT WEATHER SUCH
AS PRECIPITATION OR FOG.

IAZ001>003-012>014-020>022-031>034-043>046-191700-
   NORTHWEST IOWA

CITY           SKY/WX    TMP DP  RH WIND       PRES   REMARKS
CARROLL *      SUNNY     39  32  75 NE7       30.47S WCI  34
CHEROKEE *     SUNNY     37  24  61 E6        30.49R WCI  32
DENISON *      SUNNY     41  32  70 E7        30.48R
LE MARS *      SUNNY     36  25  64 N5        30.49R WCI  32
ORANGE CITY *  SUNNY     37  23  56 CALM      30.48R
SHELDON *      SUNNY     34  25  69 NE7       30.46S WCI  28
SIOUX CITY     SUNNY     42  28  57 E6        30.49R
SPENCER        SUNNY     36  22  56 CALM      30.49R
STORM LAKE *   SUNNY     34  23  64 NE9       30.47R WCI  26
$$

IAZ055>058-069>071-079>083-090>094-191700-
   SOUTHWEST IOWA

CITY           SKY/WX    TMP DP  RH WIND       PRES   REMARKS
ATLANTIC *     SUNNY     45  30  57 NE9       30.46
AUDUBON *      SUNNY     43  34  70 NE5       30.47R
CLARINDA *     SUNNY     45  30  57 N12       30.48S
COUNCIL BLFS * SUNNY     43  32  65 VRB3      30.47R
CRESTON *      SUNNY     45  30  57 N12       30.46R
HARLAN  *      SUNNY     43  34  70 NE8       30.50R
LAMONI         SUNNY     45  29  53 NE13      30.43R
RED OAK *      SUNNY     46  32  57 NE9       30.47R
SHENANDOAH *   SUNNY     48  30  49 VRB5G12   30.48R
$$

IAZ047>049-059>061-072>074-084-191700-
   CENTRAL IOWA

CITY           SKY/WX    TMP DP  RH WIND       PRES   REMARKS
AMES           SUNNY     41  29  62 N10       30.47R
ANKENY *       SUNNY     43  28  56 NE7       30.48R
BOONE *        SUNNY     39  30  70 N10       30.47R WCI  32
CHARITON *     SUNNY     43  30  61 VRB6G12   30.45R
DES MOINES     MOSUNNY   45  27  49 N9        30.46R
GRINNELL*      SUNNY     40  31  70 N6        30.45R
KNOXVILLE *    SUNNY     43  28  56 NW9       30.45R
MARSHALLTOWN   SUNNY     38  30  73 N10       30.46R WCI  31
NEWTON *       SUNNY     41  30  65 N9        30.46R
PELLA *        SUNNY     44  31  60 N6        30.47R
$$

IAZ004>006-015-016-023>025-035-036-191700-
   NORTH CENTRAL IOWA

CITY           SKY/WX    TMP DP  RH WIND       PRES   REMARKS
ALGONA *       SUNNY     30  21  69 N6        30.49R WCI  24
CLARION *      SUNNY     30  21  69 N5        30.48R WCI  25
ESTHERVILLE    SUNNY     32  21  64 N5        30.48R WCI  27
FORT DODGE *   SUNNY     35  21  56 NE9       30.49R WCI  28
MASON CITY     SUNNY     35  24  64 N3        30.48R
FOREST CITY *  FAIR      36  23  60 N3        30.47R
WEBSTER CITY * SUNNY     34  25  69 N7        30.47R WCI  28
IOWA FALLS *   FAIR      37  26  65 N7        30.48R WCI  31
$$

IAZ007>011-017>019-026>030-037>042-050>054-066-191700-
   NORTHEAST IOWA

CITY           SKY/WX    TMP DP  RH WIND       PRES   REMARKS
CEDAR RAPIDS   FAIR      45  31  58 N7        30.42R
CHARLES CITY * FAIR      32  23  69 NW8       30.47R WCI  25
CLINTON *      FAIR      43  32  65 NE8       30.41R
DECORAH *      FAIR      36  25  64 NW7       30.42R WCI  30
DUBUQUE        FAIR      39  26  59 N6        30.40R WCI  35
MONTICELLO *   FAIR      41  28  60 N6        30.42R
OELWEIN *      FAIR      34  28  80 N9        30.45R WCI  26
WATERLOO       FAIR      37  24  59 NW6       30.46R WCI  32
$$

IAZ064-065-067-068-078-191700-
   EAST CENTRAL IOWA

CITY           SKY/WX    TMP DP  RH WIND       PRES   REMARKS
DAVENPORT      FAIR      43  31  62 N8        30.42R
IOWA CITY      FAIR      46  27  47 NW3       30.44R
MT. PLEASANT * SUNNY     45  30  57 N12       30.42R
MUSCATINE *    FAIR      46  27  46 VRB7      30.43R
QUAD CITIES    FAIR      45  30  55 N8        30.41R
$$

IAZ062-063-075>077-085>089-095>099-191700-
   SOUTHEAST IOWA

CITY           SKY/WX    TMP DP  RH WIND       PRES   REMARKS
BURLINGTON     SUNNY     47  29  49 N9        30.40R
FAIRFIELD *    SUNNY     45  28  53 VRB5      30.43R
FORT MADISON * SUNNY     46  34  61 NW7       30.42R
KEOKUK *       SUNNY     46  30  53 N10       30.41R
OSKALOOSA *    FAIR      43  30  60 N6        30.45R
CENTERVILLE *    N/A     45  32  61 NE3       30.45R
OTTUMWA        SUNNY     45  31  58 N6        30.44R
WASHINGTON *   SUNNY     45  32  61 VRB6G12   30.44R
$$

ABBREVIATIONS USED IN REMARKS
   TC - TEMPERATURES IN CELSIUS
  WCI - WIND CHILL INDEX
   HX - HEAT INDEX
  VSB - VISIBILITY
$$




USA.gov is the U.S. government's official web portal to all federal, state and local government web resources and services.